Location: Bothwell
(42.3833°S, 147.0000°E)
Time: 06:51:20
(UTC+11:00)

ITUPSAT 1 - Pass Details

Date: 26 September 2022
Orbit: 697 x 707 km, 98.5° (Epoch: 03 December)

Event Time Altitude Azimuth Distance (km) Brightness Sun altitude
Exits shadow 21:29:03 12° 294° (WNW) 2,096 ? -34.2°
Maximum altitude 21:30:54 14° 270° (W) 1,957 ? -34.4°
Drops below altitude 10° 21:33:22 10° 239° (WSW) 2,221 ? -34.8°
Sets 21:36:50 0° 213° (SSW) 3,157 ? -35.2°
